| time (UTC) | temp F | wind direction | speed knots | gust knots | rain 1hr in | rain 24hr in | rain mn in | humidity % | barometer mb |
| 20260505100836 | 43 | 221 | 0.0 | 0.0 | 0.00 | 0.00 | 0.00 | 92 | 1015.5 |
| 20260505095820 | 44 | 221 | 0.0 | 0.0 | 0.00 | 0.00 | 0.00 | 91 | 1015.3 |
| 20260505094835 | 44 | 221 | 0.0 | 0.0 | 0.00 | 0.00 | 0.00 | 91 | 1015.3 |
| 20260505093829 | 44 | 221 | 0.0 | 0.0 | 0.00 | 0.00 | 0.00 | 91 | 1015.2 |
| 20260505092824 | 44 | 221 | 0.0 | 0.0 | 0.00 | 0.00 | 0.00 | 91 | 1015.1 |
| 20260505091822 | 45 | 222 | 0.0 | 0.0 | 0.00 | 0.00 | 0.00 | 90 | 1015.1 |
| 20260505090847 | 45 | 229 | 0.0 | 0.9 | 0.00 | 0.00 | 0.00 | 89 | 1014.9 |
| 20260505085827 | 45 | 233 | 0.9 | 2.6 | 0.00 | 0.00 | 0.00 | 89 | 1014.7 |
| 20260505084825 | 45 | 150 | 0.0 | 0.0 | 0.00 | 0.00 | 0.00 | 89 | 1014.7 |
| 20260505083820 | 46 | 150 | 0.0 | 0.0 | 0.00 | 0.00 | 0.00 | 89 | 1014.7 |
| 20260505082834 | 46 | 150 | 0.0 | 0.0 | 0.00 | 0.00 | 0.00 | 88 | 1014.7 |
| 20260505081828 | 46 | 150 | 0.0 | 0.0 | 0.00 | 0.00 | 0.00 | 88 | 1014.7 |
| 20260505080838 | 47 | 150 | 0.0 | 0.0 | 0.00 | 0.00 | 0.00 | 87 | 1014.5 |
| 20260505075818 | 47 | 150 | 0.0 | 0.0 | 0.00 | 0.00 | 0.00 | 87 | 1015.1 |
| 20260505074853 | 48 | 149 | 0.0 | 0.0 | 0.00 | 0.00 | 0.00 | 86 | 1015.1 |
| 20260505073829 | 48 | 150 | 0.0 | 0.0 | 0.00 | 0.00 | 0.00 | 86 | 1015.0 |
| 20260505072823 | 48 | 150 | 0.0 | 0.0 | 0.00 | 0.00 | 0.00 | 85 | 1014.9 |
| 20260505071834 | 49 | 150 | 0.0 | 0.0 | 0.00 | 0.00 | 0.00 | 85 | 1014.9 |
| 20260505070838 | 49 | 150 | 0.0 | 0.0 | 0.00 | 0.00 | 0.00 | 83 | 1014.9 |
| 20260505065822 | 50 | 150 | 0.0 | 0.9 | 0.00 | 0.00 | 0.00 | 83 | 1015.3 |
| 20260505064835 | 50 | 150 | 0.9 | 2.6 | 0.00 | 0.00 | 0.00 | 82 | 1015.3 |
| 20260505063831 | 51 | 204 | 0.0 | 1.7 | 0.00 | 0.00 | 0.00 | 81 | 1015.3 |
| 20260505062845 | 52 | 230 | 0.0 | 0.0 | 0.00 | 0.00 | 0.00 | 80 | 1015.0 |
| 20260505061822 | 52 | 231 | 0.0 | 0.9 | 0.00 | 0.00 | 0.00 | 79 | 1015.0 |
| 20260505060848 | 52 | 231 | 0.0 | 0.9 | 0.00 | 0.00 | 0.00 | 78 | 1015.3 |
| 20260505055827 | 53 | 230 | 0.0 | 1.7 | 0.00 | 0.00 | 0.00 | 76 | 1015.2 |
| 20260505054826 | 55 | 206 | 0.0 | 1.7 | 0.00 | 0.00 | 0.00 | 73 | 1015.2 |
| 20260505053820 | 56 | 200 | 0.0 | 0.9 | 0.00 | 0.00 | 0.00 | 71 | 1015.0 |
| 20260505052855 | 57 | 200 | 0.0 | 0.0 | 0.00 | 0.00 | 0.00 | 68 | 1014.8 |
| 20260505051828 | 60 | 200 | 0.0 | 0.0 | 0.00 | 0.00 | 0.00 | 64 | 1014.8 |
| 20260505050837 | 61 | 200 | 0.0 | 0.0 | 0.00 | 0.00 | 0.00 | 62 | 1014.8 |
| 20260505040840 | 64 | 190 | 0.0 | 4.3 | 0.00 | 0.00 | 0.00 | 53 | 1014.9 |
| 20260505035845 | 64 | 188 | 0.9 | 2.6 | 0.00 | 0.00 | 0.00 | 53 | 1014.9 |
| 20260505034818 | 64 | 236 | 1.7 | 5.2 | 0.00 | 0.00 | 0.00 | 53 | 1014.9 |
| 20260505033832 | 63 | 182 | 0.9 | 1.7 | 0.00 | 0.00 | 0.00 | 55 | 1015.1 |
| 20260505032826 | 63 | 158 | 0.9 | 8.7 | 0.00 | 0.00 | 0.00 | 56 | 1015.4 |
| 20260505031825 | 61 | 213 | 0.9 | 6.1 | 0.00 | 0.00 | 0.00 | 58 | 1015.4 |
| 20260505030849 | 61 | 181 | 0.0 | 1.7 | 0.00 | 0.00 | 0.00 | 60 | 1015.7 |
| 20260505025829 | 62 | 181 | 0.0 | 1.7 | 0.00 | 0.00 | 0.00 | 60 | 1015.5 |
| 20260505024827 | 64 | 161 | 0.0 | 1.7 | 0.00 | 0.00 | 0.00 | 57 | 1015.5 |
| 20260505023820 | 64 | 153 | 0.0 | 2.6 | 0.00 | 0.00 | 0.00 | 55 | 1015.3 |
| 20260505022834 | 65 | 152 | 0.9 | 2.6 | 0.00 | 0.00 | 0.00 | 52 | 1015.2 |
| 20260505021828 | 65 | 219 | 2.6 | 4.3 | 0.00 | 0.00 | 0.00 | 52 | 1015.2 |
| 20260505020836 | 65 | 226 | 0.0 | 5.2 | 0.00 | 0.00 | 0.00 | 53 | 1015.4 |
| 20260505015836 | 65 | 244 | 0.0 | 6.1 | 0.00 | 0.00 | 0.00 | 53 | 1015.0 |
| 20260505014830 | 65 | 210 | 0.9 | 3.5 | 0.00 | 0.00 | 0.00 | 54 | 1015.0 |
| 20260505013827 | 65 | 220 | 0.0 | 3.5 | 0.00 | 0.00 | 0.00 | 54 | 1014.8 |
| 20260505012821 | 65 | 211 | 0.0 | 4.3 | 0.00 | 0.00 | 0.00 | 53 | 1014.5 |
| 20260505011834 | 65 | 225 | 0.9 | 2.6 | 0.00 | 0.00 | 0.00 | 54 | 1014.5 |
| 20260505010858 | 66 | 212 | 0.0 | 5.2 | 0.00 | 0.00 | 0.00 | 54 | 1014.1 |
| 20260505005837 | 66 | 238 | 2.6 | 6.1 | 0.00 | 0.00 | 0.00 | 53 | 1014.0 |
| 20260505004831 | 67 | 233 | 2.6 | 5.2 | 0.00 | 0.00 | 0.00 | 52 | 1014.0 |
| 20260505003845 | 67 | 153 | 1.7 | 7.8 | 0.00 | 0.00 | 0.00 | 52 | 1013.5 |
| 20260505002817 | 68 | 207 | 0.9 | 4.3 | 0.00 | 0.00 | 0.00 | 51 | 1013.4 |
| 20260505001855 | 68 | 222 | 0.0 | 4.3 | 0.00 | 0.00 | 0.00 | 50 | 1013.4 |
| 20260505000858 | 69 | 279 | 0.0 | 5.2 | 0.00 | 0.00 | 0.00 | 49 | 1013.0 |
| 20260504235836 | 70 | 232 | 0.9 | 7.0 | 0.00 | 0.00 | 0.00 | 48 | 1013.7 |
| 20260504234831 | 70 | 211 | 0.9 | 6.1 | 0.00 | 0.00 | 0.00 | 47 | 1013.7 |
| 20260504233828 | 71 | 134 | 0.9 | 6.1 | 0.00 | 0.00 | 0.00 | 47 | 1013.5 |
| 20260504232821 | 71 | 220 | 0.9 | 7.0 | 0.00 | 0.00 | 0.00 | 46 | 1013.3 |
| 20260504231835 | 72 | 215 | 1.7 | 12.2 | 0.00 | 0.00 | 0.00 | 45 | 1013.3 |
| 20260504230844 | 72 | 138 | 0.9 | 9.6 | 0.00 | 0.00 | 0.00 | 45 | 1012.4 |
| 20260504225842 | 72 | 188 | 4.3 | 11.3 | 0.00 | 0.00 | 0.00 | 44 | 1012.4 |
| 20260504224835 | 72 | 156 | 0.9 | 6.1 | 0.00 | 0.00 | 0.00 | 44 | 1012.4 |
| 20260504223829 | 73 | 227 | 2.6 | 7.8 | 0.00 | 0.00 | 0.00 | 43 | 1012.5 |
| 20260504222826 | 73 | 213 | 2.6 | 5.2 | 0.00 | 0.00 | 0.00 | 42 | 1012.5 |
| 20260504221819 | 73 | 125 | 4.3 | 20.0 | 0.00 | 0.00 | 0.00 | 42 | 1012.5 |
| 20260504220903 | 73 | 213 | 5.2 | 16.5 | 0.00 | 0.00 | 0.00 | 41 | 1012.4 |
| 20260504215820 | 74 | 136 | 4.3 | 12.2 | 0.00 | 0.00 | 0.00 | 41 | 1012.3 |
| 20260504214818 | 74 | 213 | 4.3 | 11.3 | 0.00 | 0.00 | 0.00 | 40 | 1012.3 |
| 20260504213833 | 75 | 202 | 3.5 | 12.2 | 0.00 | 0.00 | 0.00 | 39 | 1012.3 |
| 20260504212828 | 75 | 251 | 2.6 | 9.6 | 0.00 | 0.00 | 0.00 | 38 | 1012.4 |
| 20260504211827 | 75 | 115 | 1.7 | 14.8 | 0.00 | 0.00 | 0.00 | 38 | 1012.4 |
| 20260504210912 | 75 | 159 | 3.5 | 15.6 | 0.00 | 0.00 | 0.00 | 37 | 1013.2 |
| 20260504205830 | 76 | 103 | 3.5 | 12.2 | 0.00 | 0.00 | 0.00 | 35 | 1013.3 |
| 20260504204824 | 76 | 146 | 4.3 | 9.6 | 0.00 | 0.00 | 0.00 | 34 | 1013.3 |
| 20260504203842 | 76 | 157 | 0.9 | 7.8 | 0.00 | 0.00 | 0.00 | 33 | 1013.5 |
| 20260504202836 | 76 | 132 | 3.5 | 9.6 | 0.00 | 0.00 | 0.00 | 32 | 1013.6 |
| 20260504201831 | 76 | 225 | 1.7 | 13.0 | 0.00 | 0.00 | 0.00 | 33 | 1013.6 |
| 20260504200836 | 76 | 136 | 2.6 | 6.1 | 0.00 | 0.00 | 0.00 | 31 | 1013.8 |
| 20260504195819 | 75 | 301 | 4.3 | 7.8 | 0.00 | 0.00 | 0.00 | 30 | 1014.1 |
| 20260504194833 | 76 | 133 | 2.6 | 6.1 | 0.00 | 0.00 | 0.00 | 31 | 1014.1 |
| 20260504193827 | 75 | 84 | 0.9 | 7.8 | 0.00 | 0.00 | 0.00 | 32 | 1014.2 |
| 20260504192841 | 75 | 73 | 0.0 | 4.3 | 0.00 | 0.00 | 0.00 | 33 | 1014.5 |
| 20260504191818 | 75 | 123 | 1.7 | 7.0 | 0.00 | 0.00 | 0.00 | 35 | 1014.5 |
| 20260504190903 | 74 | 110 | 0.9 | 7.8 | 0.00 | 0.00 | 0.00 | 37 | 1014.8 |
| 20260504185821 | 74 | 5 | 0.0 | 8.7 | 0.00 | 0.00 | 0.00 | 36 | 1014.8 |
| 20260504184819 | 74 | 74 | 0.9 | 6.1 | 0.00 | 0.00 | 0.00 | 38 | 1014.8 |
| 20260504183833 | 74 | 254 | 0.9 | 4.3 | 0.00 | 0.00 | 0.00 | 38 | 1015.0 |
| 20260504182827 | 73 | 74 | 0.9 | 5.2 | 0.00 | 0.00 | 0.00 | 39 | 1015.3 |
| 20260504181821 | 73 | 167 | 1.7 | 7.8 | 0.00 | 0.00 | 0.00 | 38 | 1015.3 |
| 20260504180850 | 73 | 98 | 1.7 | 4.3 | 0.00 | 0.00 | 0.00 | 39 | 1015.4 |
| 20260504175830 | 72 | 76 | 1.7 | 2.6 | 0.00 | 0.00 | 0.00 | 41 | 1015.4 |
| 20260504174825 | 72 | 18 | 1.7 | 5.2 | 0.00 | 0.00 | 0.00 | 40 | 1015.4 |
| 20260504173823 | 72 | 111 | 0.9 | 2.6 | 0.00 | 0.00 | 0.00 | 41 | 1015.7 |
| 20260504172818 | 72 | 33 | 0.9 | 2.6 | 0.00 | 0.00 | 0.00 | 40 | 1015.1 |
| 20260504171833 | 71 | 72 | 0.9 | 2.6 | 0.00 | 0.00 | 0.00 | 43 | 1015.1 |
| 20260504170837 | 70 | 36 | 1.7 | 2.6 | 0.00 | 0.00 | 0.00 | 43 | 1015.4 |
| 20260504150835 | 63 | 46 | 0.9 | 2.6 | 0.00 | 0.00 | 0.00 | 49 | 1017.4 |
| 20260504140838 | 60 | 205 | 0.0 | 0.9 | 0.00 | 0.00 | 0.00 | 56 | 1017.5 |